GW6044 Weather Reports


time (UTC)temp
C
wind
direction
speed
KPH
gust
KPH
rain 1hr
cm
rain 24hr
cm
rain mn
cm
humidity
%
barometer
mb
20260506225506 18 171 3.2 11.3 0.00 0.00 0.00 64 1019.7
20260506225007 18 151 3.2 14.5 0.00 0.00 0.00 65 1019.8
20260506224532 18 167 3.2 14.5 0.00 0.00 0.00 64 1019.9
20260506224006 17 225 3.2 9.7 0.00 0.00 0.00 67 1019.8
20260506223506 17 232 1.6 11.3 0.00 0.00 0.00 67 1019.9
20260506223026 17 133 3.2 11.3 0.00 0.00 0.00 69 1019.9
20260506222511 17 115 3.2 11.3 0.00 0.00 0.00 66 1020.1
20260506222010 17 233 3.2 12.9 0.00 0.00 0.00 68 1020.2
20260506221526 17 224 4.8 12.9 0.00 0.00 0.00 66 1020.3
20260506221010 17 153 6.4 12.9 0.00 0.00 0.00 66 1020.3
20260506220505 17 146 4.8 12.9 0.00 0.00 0.00 69 1020.4
20260506220034 17 148 4.8 12.9 0.00 0.00 0.00 67 1020.4
20260506215512 17 210 3.2 11.3 0.00 0.00 0.00 70 1020.4
20260506215009 17 215 4.8 11.3 0.00 0.00 0.00 70 1020.4
20260506214519 17 161 4.8 11.3 0.00 0.00 0.00 70 1020.4
20260506214006 17 94 3.2 11.3 0.00 0.00 0.00 70 1020.4
20260506213506 17 149 1.6 9.7 0.00 0.00 0.00 71 1020.5
20260506213016 17 200 3.2 9.7 0.00 0.00 0.00 73 1020.5
20260506212507 17 215 3.2 9.7 0.00 0.00 0.00 73 1020.5
20260506212011 16 240 1.6 9.7 0.00 0.00 0.00 75 1020.6
20260506211533 16 212 3.2 6.4 0.00 0.00 0.00 74 1020.5
20260506211009 16 92 1.6 4.8 0.00 0.00 0.00 74 1020.5
20260506210507 17 143 1.6 8.0 0.00 0.00 0.00 74 1020.6
20260506210031 16 114 1.6 8.0 0.00 0.00 0.00 75 1020.6
20260506205510 16 114 3.2 8.0 0.00 0.00 0.00 74 1020.7
20260506205007 16 189 0.0 4.8 0.00 0.00 0.00 76 1020.8
20260506204528 16 187 1.6 4.8 0.00 0.00 0.00 76 1020.8
20260506204008 16 139 1.6 6.4 0.00 0.00 0.00 77 1020.9
20260506203505 16 219 3.2 6.4 0.00 0.00 0.00 75 1020.9
20260506203031 15 188 1.6 4.8 0.00 0.00 0.00 77 1021.0
20260506202510 15 165 1.6 4.8 0.00 0.00 0.00 76 1020.9
20260506202012 15 188 1.6 8.0 0.00 0.00 0.00 76 1020.9
20260506201529 15 184 1.6 8.0 0.00 0.00 0.00 75 1020.8
20260506201007 16 148 1.6 4.8 0.00 0.00 0.00 77 1020.7
20260506200510 16 130 1.6 6.4 0.00 0.00 0.00 78 1020.7
20260506200023 15 217 1.6 8.0 0.00 0.00 0.00 76 1020.7
20260506195509 15 175 3.2 8.0 0.00 0.00 0.00 76 1020.8
20260506195010 15 215 1.6 8.0 0.00 0.00 0.00 76 1020.7
20260506194528 16 215 3.2 8.0 0.00 0.00 0.00 76 1020.7
20260506194007 16 200 3.2 11.3 0.00 0.00 0.00 75 1020.8
20260506193511 16 215 4.8 11.3 0.00 0.00 0.00 75 1020.9
20260506193028 16 196 4.8 11.3 0.00 0.00 0.00 76 1020.9
20260506192507 16 200 4.8 11.3 0.00 0.00 0.00 75 1020.8
20260506192010 16 217 4.8 9.7 0.00 0.00 0.00 75 1020.7
20260506191527 16 236 4.8 9.7 0.00 0.00 0.00 75 1020.7
20260506191011 16 229 4.8 9.7 0.00 0.00 0.00 76 1020.8
20260506190506 16 231 4.8 9.7 0.00 0.00 0.00 75 1020.7
20260506190031 16 218 1.6 6.4 0.00 0.00 0.00 75 1020.7
20260506185510 16 223 1.6 6.4 0.00 0.00 0.00 78 1020.6
20260506185011 16 83 1.6 6.4 0.00 0.00 0.00 77 1020.5
20260506184524 16 69 1.6 4.8 0.00 0.00 0.00 81 1020.5
20260506184009 15 129 1.6 4.8 0.00 0.00 0.00 80 1020.6
20260506183511 15 46 1.6 4.8 0.00 0.00 0.00 79 1020.6
20260506183024 15 47 1.6 6.4 0.00 0.00 0.00 79 1020.6
20260506182508 15 159 1.6 8.0 0.00 0.00 0.00 80 1020.6
20260506182012 15 111 3.2 9.7 0.00 0.00 0.00 80 1020.6
20260506181526 15 206 3.2 9.7 0.00 0.00 0.00 80 1020.6
20260506181010 15 119 3.2 9.7 0.00 0.00 0.00 80 1020.6
20260506180509 15 84 4.8 9.7 0.00 0.00 0.00 80 1020.5
20260506180032 15 109 3.2 6.4 0.00 0.00 0.00 82 1020.6
20260506175507 15 38 1.6 4.8 0.00 0.00 0.00 81 1020.6
20260506175010 15 84 0.0 4.8 0.00 0.00 0.00 82 1020.7
20260506174532 15 96 1.6 6.4 0.00 0.00 0.00 82 1020.7
20260506174011 15 200 1.6 6.4 0.00 0.00 0.00 83 1020.7
20260506173510 14 67 3.2 6.4 0.00 0.00 0.00 83 1020.6
20260506173030 14 93 0.0 6.4 0.00 0.00 0.00 83 1020.6
20260506172507 14 186 1.6 6.4 0.00 0.00 0.00 82 1020.6
20260506172009 14 219 1.6 4.8 0.00 0.00 0.00 82 1020.5
20260506171537 14 246 1.6 4.8 0.00 0.00 0.00 83 1020.6
20260506171008 14 209 1.6 3.2 0.00 0.00 0.00 83 1020.6
20260506170514 14 154 1.6 3.2 0.00 0.00 0.00 84 1020.4
20260506170024 14 81 0.0 3.2 0.00 0.00 0.00 83 1020.4
20260506165508 14 68 1.6 3.2 0.00 0.00 0.00 84 1020.4
20260506165009 14 150 0.0 3.2 0.00 0.00 0.00 84 1020.5
20260506164528 14 173 1.6 3.2 0.00 0.00 0.00 84 1020.5
20260506164009 14 111 1.6 4.8 0.00 0.00 0.00 84 1020.5
20260506163511 13 171 1.6 4.8 0.00 0.00 0.00 84 1020.4
20260506163025 13 164 3.2 4.8 0.00 0.00 0.00 84 1020.5
20260506162508 13 169 1.6 3.2 0.00 0.00 0.00 84 1020.5
20260506162015 13 165 1.6 3.2 0.00 0.00 0.00 84 1020.5
20260506161525 13 231 0.0 3.2 0.00 0.00 0.00 85 1020.4
20260506161008 13 237 0.0 3.2 0.00 0.00 0.00 85 1020.4
20260506160508 13 258 1.6 3.2 0.00 0.00 0.00 85 1020.3
20260506160031 13 257 1.6 3.2 0.00 0.00 0.00 85 1020.1
20260506155508 13 176 1.6 3.2 0.00 0.00 0.00 87 1020.0
20260506155010 13 188 1.6 4.8 0.00 0.00 0.00 87 1020.0
20260506154529 13 261 0.0 4.8 0.00 0.00 0.00 87 1019.9
20260506154012 13 193 1.6 4.8 0.00 0.00 0.00 86 1019.8
20260506153513 13 219 0.0 3.2 0.00 0.00 0.00 87 1019.8
20260506153024 13 71 1.6 4.8 0.00 0.00 0.00 88 1020.0
20260506152513 13 323 0.0 6.4 0.00 0.00 0.00 87 1020.0
20260506152011 12 223 1.6 6.4 0.00 0.00 0.00 88 1020.1
20260506151526 12 37 0.0 3.2 0.00 0.00 0.00 87 1020.3
20260506151010 12 159 1.6 3.2 0.00 0.00 0.00 88 1020.3
20260506150513 12 215 0.0 3.2 0.00 0.00 0.00 87 1020.5
20260506150028 12 130 0.0 3.2 0.00 0.00 0.00 87 1020.4
20260506145508 12 302 0.0 3.2 0.00 0.00 0.00 87 1020.4
20260506145007 12 269 0.0 3.2 0.00 0.00 0.00 87 1020.3
20260506144527 12 220 0.0 3.2 0.00 0.00 0.00 87 1020.2
20260506144013 12 184 1.6 3.2 0.00 0.00 0.00 87 1020.1
20260506143509 12 187 0.0 3.2 0.00 0.00 0.00 88 1020.1
20260506143028 12 187 0.0 3.2 0.00 0.00 0.00 88 1020.1
20260506142513 12 240 0.0 3.2 0.00 0.00 0.00 88 1020.2
20260506142012 12 229 1.6 3.2 0.00 0.00 0.00 88 1019.9
20260506141528 12 234 1.6 3.2 0.00 0.00 0.00 88 1019.8
20260506141010 12 244 0.0 3.2 0.00 0.00 0.00 90 1019.7
20260506140507 12 243 0.0 3.2 0.00 0.00 0.00 90 1019.5
20260506140034 12 259 0.0 3.2 0.00 0.00 0.00 90 1019.6
20260506135507 12 259 0.0 1.6 0.00 0.00 0.00 91 1019.7
20260506135009 12 259 0.0 3.2 0.00 0.00 0.00 91 1019.6
20260506134525 12 260 1.6 3.2 0.00 0.00 0.00 91 1019.4
20260506134014 12 228 0.0 3.2 0.00 0.00 0.00 90 1019.3
20260506133510 12 228 0.0 3.2 0.00 0.00 0.00 91 1019.3
20260506133030 12 228 0.0 3.2 0.00 0.00 0.00 90 1019.3
20260506132515 12 228 0.0 3.2 0.00 0.00 0.00 91 1019.3
20260506132008 12 228 0.0 3.2 0.00 0.00 0.00 90 1019.2
20260506131510 12 230 0.0 3.2 0.00 0.00 0.00 90 1019.2
20260506131003 12 238 0.0 3.2 0.00 0.00 0.00 90 1019.2
20260506130506 12 236 0.0 3.2 0.00 0.00 0.00 90 1019.1
20260506130012 12 234 0.0 3.2 0.00 0.00 0.00 90 1019.0
20260506125503 12 234 0.0 3.2 0.00 0.00 0.00 90 1019.0
20260506125005 12 234 0.0 3.2 0.00 0.00 0.00 89 1019.0
20260506124516 12 234 0.0 3.2 0.00 0.00 0.00 89 1018.9
20260506124003 12 234 0.0 3.2 0.00 0.00 0.00 89 1018.9
20260506123504 12 234 0.0 3.2 0.00 0.00 0.00 89 1018.8
20260506123014 12 234 1.6 3.2 0.00 0.00 0.00 89 1018.9
20260506122504 12 263 0.0 3.2 0.00 0.00 0.00 89 1018.9
20260506122011 12 264 1.6 3.2 0.00 0.00 0.00 89 1018.9
20260506121509 12 260 0.0 3.2 0.00 0.00 0.00 89 1018.9
20260506121008 12 260 0.0 3.2 0.00 0.00 0.00 90 1018.9
20260506120508 12 260 0.0 3.2 0.00 0.00 0.00 89 1018.9
20260506120009 12 260 0.0 3.2 0.00 0.00 0.00 89 1018.9
20260506115504 12 260 0.0 3.2 0.00 0.00 0.00 89 1019.0
20260506115009 12 260 0.0 3.2 0.00 0.00 0.00 89 1018.8
20260506114531 12 260 0.0 3.2 0.00 0.00 0.00 90 1018.8
20260506114007 12 260 0.0 3.2 0.00 0.00 0.00 90 1018.7
20260506113508 12 260 0.0 3.2 0.00 0.00 0.00 89 1018.7
20260506113014 12 260 0.0 3.2 0.00 0.00 0.00 89 1018.7
20260506112504 12 260 0.0 3.2 0.00 0.00 0.00 89 1018.6
20260506112006 12 260 0.0 3.2 0.00 0.00 0.00 89 1018.6
20260506111513 12 260 0.0 3.2 0.00 0.00 0.00 90 1018.6
20260506111010 12 260 0.0 3.2 0.00 0.00 0.00 89 1018.5
20260506110505 12 260 0.0 3.2 0.00 0.00 0.00 90 1018.5
20260506110020 12 260 0.0 3.2 0.00 0.00 0.00 89 1018.5
20260506105508 12 260 0.0 3.2 0.00 0.00 0.00 90 1018.4
20260506105009 12 260 0.0 3.2 0.00 0.00 0.00 90 1018.3
20260506104514 13 260 0.0 3.2 0.00 0.00 0.00 90 1018.2
20260506104008 13 260 0.0 3.2 0.00 0.00 0.00 90 1018.2
20260506103509 12 260 0.0 3.2 0.00 0.00 0.00 89 1018.2
20260506103008 13 260 0.0 3.2 0.00 0.00 0.00 89 1018.0
20260506102508 13 260 0.0 3.2 0.00 0.00 0.00 89 1018.0
20260506102011 13 260 0.0 3.2 0.00 0.00 0.00 89 1017.9
20260506101517 13 260 0.0 3.2 0.00 0.00 0.00 89 1017.8
20260506101007 13 260 0.0 1.6 0.00 0.00 0.00 89 1017.8
20260506100506 13 260 0.0 3.2 0.00 0.00 0.00 90 1017.8
20260506100021 13 260 0.0 3.2 0.00 0.00 0.00 88 1017.7
20260506095506 13 260 0.0 3.2 0.00 0.00 0.00 88 1017.7
20260506095009 13 260 0.0 3.2 0.00 0.00 0.00 88 1017.7
20260506094516 13 260 0.0 3.2 0.00 0.00 0.00 88 1017.8
20260506094006 13 260 0.0 3.2 0.00 0.00 0.00 88 1017.8
20260506093503 13 260 0.0 3.2 0.00 0.00 0.00 88 1017.7
20260506093017 13 260 0.0 3.2 0.00 0.00 0.00 88 1017.7
20260506092509 13 260 0.0 3.2 0.00 0.00 0.00 88 1017.7
20260506092008 13 260 0.0 3.2 0.00 0.00 0.00 88 1017.7
20260506091513 13 260 0.0 3.2 0.00 0.00 0.00 88 1017.7
20260506091008 13 260 0.0 3.2 0.00 0.00 0.00 88 1017.7
20260506090510 13 260 0.0 3.2 0.00 0.00 0.00 88 1017.6
20260506090013 13 260 0.0 3.2 0.00 0.00 0.00 88 1017.7
20260506085506 13 260 0.0 3.2 0.00 0.00 0.00 88 1017.7
20260506085006 13 260 0.0 3.2 0.00 0.00 0.00 88 1017.7
20260506084514 13 260 0.0 3.2 0.00 0.00 0.00 88 1017.7
20260506084006 13 260 0.0 3.2 0.00 0.00 0.00 88 1017.6
20260506083508 13 260 0.0 3.2 0.00 0.00 0.00 89 1017.6
20260506083015 13 260 0.0 3.2 0.00 0.00 0.00 1017.5
20260506082505 13 260 0.0 1.6 0.00 0.00 0.00 1017.5
20260506082006 13 260 0.0 3.2 0.00 0.00 0.00 88 1017.5
20260506081515 13 260 0.0 3.2 0.00 0.00 0.00 88 1017.5
20260506081013 13 260 0.0 3.2 0.00 0.00 0.00 87 1017.4
20260506080507 13 260 0.0 3.2 0.00 0.00 0.00 88 1017.4
20260506073509 13 260 0.0 1.6 0.00 0.00 0.00 88 1017.2
20260506073016 13 260 0.0 1.6 0.00 0.00 0.00 88 1017.2
20260506072508 13 260 0.0 3.2 0.00 0.00 0.00 89 1017.2
20260506072008 13 260 0.0 3.2 0.00 0.00 0.00 88 1017.1
20260506071511 13 260 0.0 3.2 0.00 0.00 0.00 88 1017.1
20260506071005 13 260 1.6 3.2 0.00 0.00 0.00 89 1016.9
20260506070502 13 260 0.0 3.2 0.00 0.00 0.00 88 1016.9
20260506062503 13 261 1.6 3.2 0.00 0.00 0.00 88 1016.8
20260506062007 13 245 0.0 3.2 0.00 0.00 0.00 88 1016.7
20260506061512 13 245 0.0 3.2 0.00 0.00 0.00 88 1016.8
20260506061003 13 245 0.0 3.2 0.00 0.00 0.00 88 1016.7
20260506060504 13 248 0.0 1.6 0.00 0.00 0.00 88 1016.7
20260506051006 13 239 0.0 1.6 0.00 0.00 0.00 87 1016.6
20260506050505 13 239 1.6 1.6 0.00 0.00 0.00 87 1016.4
20260506045007 14 239 0.0 3.2 0.00 0.00 0.00 87 1016.3
20260506044526 14 244 0.0 3.2 0.00 0.00 0.00 87 1016.3
20260506044002 14 244 1.6 1.6 0.00 0.00 0.00 87 1016.2
20260506043507 14 248 0.0 1.6 0.00 0.00 0.00 86 1016.2
20260506043014 14 257 0.0 1.6 0.00 0.00 0.00 1016.1
20260506042512 14 259 0.0 3.2 0.00 0.00 0.00 86 1016.1
20260506042007 14 244 1.6 3.2 0.00 0.00 0.00 86 1016.1
20260506041514 14 242 0.0 3.2 0.00 0.00 0.00 86 1016.0
20260506041006 14 250 1.6 3.2 0.00 0.00 0.00 85 1016.0
20260506040513 14 242 0.0 3.2 0.00 0.00 0.00 85 1016.0
20260506040015 14 250 1.6 3.2 0.00 0.00 0.00 85 1015.9
20260506035506 14 250 1.6 3.2 0.00 0.00 0.00 85 1015.9
20260506035007 14 254 1.6 3.2 0.00 0.00 0.00 85 1015.8
20260506034509 14 262 1.6 3.2 0.00 0.00 0.00 84 1015.7
20260506034008 14 262 1.6 1.6 0.00 0.00 0.00 84 1015.6
20260506033506 14 264 1.6 1.6 0.00 0.00 0.00 84 1015.5
20260506033014 14 264 1.6 1.6 0.00 0.00 0.00 82 1015.5
20260506032508 15 267 1.6 3.2 0.00 0.00 0.00 82 1015.5
20260506032008 15 265 0.0 3.2 0.00 0.00 0.00 82 1015.4
20260506031528 15 265 0.0 3.2 0.00 0.00 0.00 82 1015.4
20260506031005 15 265 0.0 3.2 0.00 0.00 0.00 82 1015.3
20260506030510 15 265 0.0 3.2 0.00 0.00 0.00 81 1015.3
20260506030035 15 265 0.0 1.6 0.00 0.00 0.00 80 1015.3
20260506025507 15 265 1.6 3.2 0.00 0.00 0.00 80 1015.2
20260506025008 15 257 0.0 3.2 0.00 0.00 0.00 77 1015.2
20260506024521 15 225 0.0 3.2 0.00 0.00 0.00 77 1015.2
20260506024007 16 241 1.6 3.2 0.00 0.00 0.00 77 1015.2
20260506023504 16 232 0.0 3.2 0.00 0.00 0.00 77 1015.1
20260506023013 16 228 0.0 3.2 0.00 0.00 0.00 76 1015.1
20260506022507 16 211 1.6 3.2 0.00 0.00 0.00 76 1015.1
20260506022008 16 219 1.6 3.2 0.00 0.00 0.00 76 1015.1
20260506021513 16 232 0.0 3.2 0.00 0.00 0.00 76 1015.0
20260506021005 16 232 0.0 4.8 0.00 0.00 0.00 76 1015.1
20260506020510 16 211 1.6 4.8 0.00 0.00 0.00 75 1015.1
20260506020016 16 226 0.0 3.2 0.00 0.00 0.00 76 1015.1
20260506015507 16 202 0.0 4.8 0.00 0.00 0.00 76 1015.1
20260506015010 16 225 1.6 4.8 0.00 0.00 0.00 75 1015.1
20260506014514 16 63 1.6 4.8 0.00 0.00 0.00 75 1015.1
20260506014004 16 235 1.6 4.8 0.00 0.00 0.00 76 1015.1
20260506013506 16 213 1.6 4.8 0.00 0.00 0.00 75 1015.1
20260506013016 16 37 1.6 4.8 0.00 0.00 0.00 75 1015.1
20260506012507 16 217 1.6 4.8 0.00 0.00 0.00 74 1015.1
20260506012009 16 44 0.0 6.4 0.00 0.00 0.00 74 1015.1
20260506011517 16 208 0.0 6.4 0.00 0.00 0.00 73 1015.1
20260506011011 16 130 1.6 4.8 0.00 0.00 0.00 73 1015.2
20260506010507 16 98 1.6 3.2 0.00 0.00 0.00 74 1015.1
20260506010015 16 65 1.6 3.2 0.00 0.00 0.00 73 1015.1
20260506005507 16 229 1.6 4.8 0.00 0.00 0.00 73 1015.1
20260506005008 16 167 1.6 6.4 0.00 0.00 0.00 74 1015.2
20260506004525 16 215 1.6 6.4 0.00 0.00 0.00 75 1015.2
20260506004006 16 212 1.6 4.8 0.00 0.00 0.00 74 1015.2
20260506003511 16 227 1.6 6.4 0.00 0.00 0.00 74 1015.2
20260506003012 16 172 1.6 6.4 0.00 0.00 0.00 73 1015.2
20260506002506 16 191 1.6 4.8 0.00 0.00 0.00 73 1015.2
20260506002012 16 160 1.6 9.7 0.00 0.00 0.00 73 1015.2
20260506001515 16 186 4.8 9.7 0.00 0.00 0.00 72 1015.2
20260506001006 16 216 1.6 4.8 0.00 0.00 0.00 74 1015.2
20260506000513 16 134 1.6 4.8 0.00 0.00 0.00 74 1015.2
20260506000018 16 44 1.6 4.8 0.00 0.00 0.00 73 1015.3
20260505235506 16 234 1.6 6.4 0.00 0.00 0.00 73 1015.3
20260505235007 16 76 1.6 6.4 0.00 0.00 0.00 73 1015.4
20260505234515 16 210 0.0 4.8 0.00 0.00 0.00 74 1015.4
20260505234006 16 215 1.6 8.0 0.00 0.00 0.00 75 1015.4
20260505233509 16 179 3.2 9.7 0.00 0.00 0.00 72 1015.5
20260505233016 16 234 3.2 9.7 0.00 0.00 0.00 73 1015.5
20260505232507 16 177 3.2 9.7 0.00 0.00 0.00 74 1015.5
20260505232006 16 159 3.2 9.7 0.00 0.00 0.00 72 1015.5
20260505231522 16 187 3.2 8.0 0.00 0.00 0.00 72 1015.5
20260505231013 16 213 3.2 6.4 0.00 0.00 0.00 73 1015.6
20260505230506 16 217 1.6 9.7 0.00 0.00 0.00 73 1015.5
20260505230018 16 174 3.2 9.7 0.00 0.00 0.00 73 1015.6